User: anonymous   Login
Location: Unspecified
(43.4354°N, 0.0000°E)
Time: 20:17:24
(UTC+00:00)
Language:

NOAA 19 - Orbit

View from above orbital plane
View from above orbital plane
View from above satellite
View from above satellite

Ground track
Ground track

The orbit data is extracted from the following two-line orbital elements,

1 33591U 09005A   19197.45936838  .00000064  00000-0  59967-4 0  9998
2 33591  99.1804 189.2558 0013075 303.3166  56.6752 14.12365109537828
Epoch (UTC): 16 July 2019 11:01:29
Eccentricity: 0.0013075
inclination: 99.1804°
perigee height: 842 km
apogee height: 861 km
right ascension of ascending node: 189.2558°
argument of perigee: 303.3166°
revolutions per day: 14.12365109
mean anomaly at epoch: 56.6752°
orbit number at epoch: 53782

The dashed part of the orbit path shows where the satellite is in the earth's shadow,  

DLR